[[{"header":{"parameterUnit":"m.s-1","parameterCategory":1,"la1":30.2991,"la2":30.254,"lo1":-89.0895,"lo2":-89.0444,"dy":0.0017,"dx":0.0017,"nx":28,"ny":28,"refTime":"2024-02-26T03:00:00:Z","depth":0,"parameterNumber":2,"parameterNumberName":"U-component_of_WINDS"},"data":[0,0,0,0,0,0,0,0,0,0,0,0,0,0,0,0,0,0,0,0,0,0,0,0,0,0,0,0,0,0,0,0,0,0,0,0,0,0,0,0,0,0,0,0,0,0,0,0,0,0,0,0,0,0,0,0,0,0,-0.3337,-0.3335,0,-0.3208,-0.3207,-0.3205,-0.3165,-0.3166,-0.3166,-0.3167,-0.3033,-0.3029,-0.3025,0,0,0,0,0,0,0,0,0,0,0,0,0,-0.3545,-0.3542,-0.3337,-0.3335,-0.3334,-0.3208,-0.3207,-0.3205,-0.3165,-0.3166,-0.3166,-0.3167,-0.3034,-0.3029,-0.3024,0,0,0,0,0,0,0,0,0,0,0,0,0,-0.344,-0.3541,-0.3337,-0.3299,-0.3294,-0.3209,-0.3207,-0.3204,-0.3165,-0.3166,-0.3167,-0.3168,-0.3036,-0.303,-0.3024,-0.2967,0,0,-0.3005,-0.3002,0,0,0,0,0,0,0,0,-0.3446,-0.3432,-0.3306,-0.3301,-0.3296,-0.3204,-0.3231,-0.3125,-0.3165,-0.3214,-0.3167,-0.3168,-0.3089,-0.3078,-0.3052,-0.296,-0.2955,-0.3004,-0.3,-0.2998,-0.2996,0,0,0,0,0,0,0,-0.3453,-0.3437,-0.3286,-0.3304,-0.3298,-0.3287,-0.3273,-0.3211,-0.3148,-0.321,-0.3206,-0.3192,-0.3086,-0.3058,-0.3049,-0.2953,-0.3004,-0.2999,-0.2995,-0.2992,-0.2807,-0.2806,0,0,0,0,0,0,-0.3467,-0.3444,-0.329,-0.3282,-0.3375,-0.3283,-0.3267,-0.3232,-0.3148,-0.3136,-0.3191,-0.319,-0.3068,-0.3056,-0.3044,-0.2971,-0.2998,-0.2992,-0.2988,-0.2809,-0.2807,-0.2806,0,0,0,0,0,0,-0.3472,-0.3454,-0.3295,-0.3362,-0.3341,-0.3278,-0.3239,-0.3229,-0.3201,-0.3134,-0.3123,-0.3174,-0.3069,-0.3052,-0.2986,-0.2966,-0.2989,-0.2983,-0.281,-0.2808,-0.2806,-0.2826,0,0,0,0,0,0,-0.3478,-0.3456,-0.3434,-0.3362,-0.3338,-0.3241,-0.3238,-0.3226,-0.3191,-0.3189,-0.3115,-0.3104,-0.3068,-0.2996,-0.298,-0.2958,-0.2979,-0.2811,-0.2809,-0.2807,-0.2827,-0.2825,-0.2823,0,0,0,0,0,-0.3486,-0.3444,-0.3433,-0.3415,-0.3309,-0.324,-0.3225,-0.3186,-0.3189,-0.3167,-0.3124,-0.3106,-0.2971,-0.2989,-0.2971,-0.2947,-0.2813,-0.281,-0.2807,-0.2827,-0.2825,-0.2823,0,0,0,0,0,0,-0.3515,-0.3434,-0.3421,-0.3355,-0.3305,-0.3233,-0.3203,-0.3185,-0.3131,-0.3131,-0.3083,-0.3067,-0.3004,-0.2969,-0.2991,-0.2887,-0.2891,-0.2885,-0.2912,-0.291,-0.2908,-0.2918,-0.2973,0,0,0,0,0,-0.3514,-0.3465,-0.3396,-0.3345,-0.332,-0.3266,-0.3234,-0.3208,-0.3153,-0.3132,-0.3084,-0.3031,-0.2976,-0.2941,-0.2887,-0.2822,-0.2805,-0.2796,-0.2794,-0.2793,-0.2788,-0.275,-0.2745,-0.2797,-0.2797,-0.2797,0,0,-0.3511,-0.3461,-0.3432,-0.335,-0.3307,-0.3257,-0.3248,-0.3195,-0.3157,-0.3123,-0.3058,-0.3021,-0.2959,-0.2892,-0.2861,-0.2861,-0.277,-0.279,-0.279,-0.2785,-0.2747,-0.2742,-0.2738,-0.2795,-0.2796,-0.2796,0,0,-0.3479,-0.3437,-0.3389,-0.3347,-0.3284,-0.3248,-0.3237,-0.3167,-0.3142,-0.3076,-0.3049,-0.3003,-0.291,-0.2866,-0.2832,-0.2785,-0.2767,-0.2768,-0.276,-0.2723,-0.2719,-0.2715,-0.2698,-0.2692,-0.2764,-0.2764,-0.2764,0,-0.3484,-0.3407,-0.3367,-0.3315,-0.3279,-0.3247,-0.3198,-0.3159,-0.3081,-0.3056,-0.3058,-0.294,-0.2896,-0.2819,-0.2808,-0.2781,-0.2766,-0.2776,-0.2723,-0.2719,-0.2715,-0.2697,-0.2691,-0.2764,-0.2764,-0.2764,-0.2764,0,-0.3415,-0.3362,-0.3331,-0.3257,-0.3218,-0.3168,-0.3119,-0.3084,-0.3061,-0.3025,-0.2958,-0.2904,-0.2838,-0.2818,-0.2795,-0.2738,-0.274,-0.2733,-0.2736,-0.2711,-0.2694,-0.2687,-0.2765,-0.2765,-0.2765,-0.2765,0,0,-0.3398,-0.3303,-0.3292,-0.3258,-0.3186,-0.3144,-0.3092,-0.3028,-0.2999,-0.2946,-0.2901,-0.2823,-0.2817,-0.2778,-0.275,-0.2718,-0.2683,-0.2715,-0.2713,-0.271,-0.2616,-0.2621,-0.2614,-0.2671,-0.267,-0.2669,-0.2621,0,-0.3357,-0.3264,-0.3226,-0.315,-0.31,-0.3069,-0.3024,-0.2974,-0.2939,-0.2892,-0.2853,-0.2798,-0.2794,-0.277,-0.2738,-0.2695,-0.2664,-0.2697,-0.2628,-0.2626,-0.2644,-0.2605,-0.2611,-0.2568,-0.2614,-0.2613,-0.2612,0,-0.3296,-0.3244,-0.3163,-0.3097,-0.3075,-0.3035,-0.2974,-0.2929,-0.2872,-0.2848,-0.2805,-0.2779,-0.2723,-0.273,-0.2651,-0.2675,-0.2645,-0.2619,-0.2617,-0.2608,-0.2617,-0.2595,-0.2554,-0.2548,-0.2601,-0.2602,-0.2603,0,-0.3291,-0.32,-0.314,-0.3112,-0.3034,-0.3006,-0.2972,-0.2916,-0.288,-0.2826,-0.2803,-0.2743,-0.271,-0.2664,-0.2622,-0.2632,-0.2548,-0.2551,-0.2526,-0.2527,-0.2509,-0.2511,-0.2462,-0.249,-0.2491,-0.2491,-0.2491,0,-0.3249,-0.3201,-0.3137,-0.31,-0.3045,-0.3002,-0.2948,-0.2912,-0.2862,-0.2817,-0.2786,-0.2745,-0.2692,-0.2643,-0.261,-0.255,-0.2535,-0.2514,-0.2506,-0.2517,-0.2519,-0.2495,-0.2497,-0.2489,-0.2489,-0.249,-0.249,0,-0.3234,-0.3189,-0.3122,-0.3053,-0.3034,-0.2997,-0.2938,-0.29,-0.2864,-0.2807,-0.2791,-0.2734,-0.2675,-0.2629,-0.2552,-0.253,-0.2466,-0.2457,-0.2486,-0.2481,-0.2458,-0.2461,-0.2392,-0.238,-0.2418,-0.2417,-0.2417,0,-0.3209,-0.3172,-0.3099,-0.3067,-0.3033,-0.2982,-0.2946,-0.2901,-0.2865,-0.2797,-0.2768,-0.2707,-0.2656,-0.2563,-0.2514,-0.2455,-0.2444,-0.2424,-0.2435,-0.2447,-0.2443,-0.2446,-0.2441,-0.2422,-0.2422,-0.2422,-0.2422,0,-0.3171,-0.3151,-0.31,-0.3041,-0.2999,-0.295,-0.2901,-0.2877,-0.2823,-0.2783,-0.2723,-0.2684,-0.2606,-0.2545,-0.2481,-0.2445,-0.2424,-0.2419,-0.241,-0.242,-0.2438,-0.2428,-0.2482,-0.2421,-0.2421,-0.2421,-0.2421,-0.2421,-0.3149,-0.3114,-0.3058,-0.3002,-0.2961,-0.2916,-0.2877,-0.2836,-0.2786,-0.2719,-0.2696,-0.2634,-0.2577,-0.2489,-0.2453,-0.2403,-0.2402,-0.2389,-0.2385,-0.2383,-0.2384,-0.2447,-0.2391,-0.2391,-0.2391,-0.2391,-0.2391,0,-0.3109,-0.3071,-0.302,-0.2953,-0.2909,-0.2894,-0.2839,-0.2803,-0.2749,-0.2699,-0.2649,-0.258,-0.2521,-0.2468,-0.2407,-0.2377,-0.2366,-0.2363,-0.2364,-0.2356,-0.2389,-0.2402,-0.2373,-0.2373,-0.2373,-0.2373,-0.2373,-0.2373,-0.3082,-0.3022,-0.2996,-0.2915,-0.2877,-0.2816,-0.2786,-0.2744,-0.2703,-0.2628,-0.2579,-0.2545,-0.2493,-0.2428,-0.2374,-0.2359,-0.2338,-0.2337,-0.232,-0.2351,-0.2354,-0.2356,-0.2369,-0.2333,-0.2333,-0.2292,-0.2292,-0.2291]},{"header":{"parameterUnit":"m.s-1","parameterCategory":1,"la1":30.2991,"la2":30.254,"lo1":-89.0895,"lo2":-89.0444,"dy":0.0017,"dx":0.0017,"nx":28,"ny":28,"refTime":"2024-02-26T03:00:00:Z","depth":0,"parameterNumber":3,"parameterNumberName":"V-component_of_WINDS"},"data":[0,0,0,0,0,0,0,0,0,0,0,0,0,0,0,0,0,0,0,0,0,0,0,0,0,0,0,0,0,0,0,0,0,0,0,0,0,0,0,0,0,0,0,0,0,0,0,0,0,0,0,0,0,0,0,0,0,0,1.1866,1.1866,0,1.1905,1.1906,1.1906,1.1871,1.1869,1.1868,1.1866,1.1913,1.1916,1.1918,0,0,0,0,0,0,0,0,0,0,0,0,0,1.1767,1.1769,1.1866,1.1866,1.1867,1.1905,1.1906,1.1906,1.1871,1.1869,1.1867,1.1866,1.1912,1.1915,1.1918,0,0,0,0,0,0,0,0,0,0,0,0,0,1.1809,1.177,1.1866,1.1854,1.1853,1.1905,1.1906,1.1906,1.1871,1.1869,1.1867,1.1865,1.1911,1.1915,1.1919,1.1987,0,0,1.1931,1.1932,0,0,0,0,0,0,0,0,1.1806,1.1812,1.1855,1.1855,1.1854,1.1881,1.1888,1.1934,1.1872,1.1865,1.1866,1.1864,1.1905,1.1909,1.1921,1.1989,1.1991,1.1931,1.1934,1.1935,1.1936,0,0,0,0,0,0,0,1.1804,1.1811,1.1882,1.1856,1.1855,1.1849,1.1852,1.1897,1.1897,1.1865,1.1862,1.1867,1.1904,1.1918,1.1922,1.1992,1.1931,1.1935,1.1937,1.1938,1.212,1.2122,0,0,0,0,0,0,1.1801,1.1808,1.188,1.1883,1.1824,1.1852,1.1856,1.1874,1.1896,1.1897,1.1869,1.1865,1.1912,1.1918,1.1924,1.2006,1.1935,1.1939,1.1941,1.2117,1.212,1.2123,0,0,0,0,0,0,1.1799,1.1808,1.1879,1.1845,1.1853,1.1856,1.1877,1.1876,1.189,1.1899,1.1899,1.1883,1.191,1.1918,1.1971,1.2007,1.1941,1.1944,1.2114,1.2118,1.2122,1.2171,0,0,0,0,0,0,1.1796,1.1807,1.1832,1.1846,1.1855,1.1924,1.1879,1.1879,1.1896,1.1892,1.1912,1.1913,1.1909,1.1966,1.1975,1.2011,1.1947,1.2111,1.2116,1.212,1.2166,1.2176,1.2184,0,0,0,0,0,1.1793,1.1845,1.1833,1.1842,1.1885,1.1926,1.1932,1.1925,1.1899,1.1925,1.1931,1.1913,1.2001,1.1972,1.1982,1.202,1.2109,1.2115,1.212,1.2162,1.2174,1.2184,0,0,0,0,0,0,1.1837,1.1847,1.1833,1.1891,1.1908,1.192,1.1952,1.1937,1.1963,1.1959,1.195,1.1955,1.2012,1.2021,1.1988,1.2088,1.2051,1.2059,1.208,1.2091,1.21,1.2097,1.195,0,0,0,0,0,1.1853,1.1883,1.1891,1.1941,1.195,1.195,1.1967,1.196,1.1978,1.1986,1.1995,1.2016,1.2048,1.207,1.21,1.2167,1.2172,1.2198,1.2207,1.2215,1.2222,1.226,1.2272,1.2141,1.2141,1.2141,0,0,1.1888,1.1896,1.1916,1.195,1.1962,1.1996,1.1956,1.1993,1.2019,1.1992,1.2043,1.2051,1.2073,1.2134,1.2161,1.2143,1.2259,1.2222,1.2227,1.2231,1.2267,1.228,1.2291,1.2145,1.2144,1.2144,0,0,1.1968,1.1976,1.202,1.2032,1.2051,1.205,1.2061,1.2075,1.2079,1.2129,1.211,1.2142,1.2197,1.2214,1.223,1.2317,1.2303,1.2328,1.2375,1.2412,1.2423,1.2432,1.2465,1.2477,1.2335,1.2335,1.2335,0,1.2009,1.2056,1.2045,1.2083,1.21,1.2074,1.212,1.2134,1.2162,1.2175,1.2154,1.2224,1.2237,1.2302,1.2323,1.2336,1.235,1.2326,1.2422,1.2431,1.2439,1.2471,1.2483,1.2338,1.2338,1.2337,1.2337,0,1.2107,1.2141,1.2174,1.22,1.222,1.2262,1.2259,1.2281,1.2272,1.2275,1.2328,1.2342,1.2376,1.239,1.2383,1.2455,1.2444,1.2422,1.2386,1.2455,1.2485,1.2496,1.2342,1.2341,1.234,1.2339,0,0,1.2217,1.2235,1.2248,1.226,1.2278,1.2305,1.2347,1.2378,1.2398,1.2419,1.2455,1.2503,1.2483,1.2502,1.2496,1.2528,1.2598,1.2503,1.2503,1.2522,1.2681,1.2699,1.2712,1.2588,1.259,1.2592,1.268,0,1.2298,1.2368,1.2359,1.2428,1.246,1.2437,1.2474,1.2491,1.2494,1.2524,1.2529,1.2563,1.2534,1.2545,1.2576,1.2583,1.2631,1.2576,1.2624,1.2626,1.2621,1.2727,1.2745,1.2828,1.2691,1.2693,1.2695,0,1.2403,1.2426,1.2497,1.2511,1.2525,1.2557,1.2586,1.2613,1.2633,1.2633,1.2654,1.2642,1.2687,1.2648,1.2711,1.2674,1.2693,1.27,1.2703,1.2709,1.2666,1.2738,1.2854,1.2867,1.2712,1.2711,1.271,0,1.2479,1.2527,1.2576,1.2587,1.2604,1.2628,1.2637,1.2654,1.2673,1.2699,1.2712,1.2743,1.276,1.2785,1.2784,1.2755,1.2848,1.2809,1.2852,1.2852,1.2874,1.2873,1.2997,1.2884,1.2883,1.2883,1.2883,0,1.2572,1.2617,1.261,1.264,1.2691,1.2681,1.2732,1.2738,1.2753,1.2786,1.2769,1.2801,1.2795,1.2828,1.2827,1.288,1.2888,1.2892,1.2891,1.2894,1.2894,1.2908,1.2903,1.2886,1.2886,1.2885,1.2885,0,1.2665,1.2661,1.2714,1.2726,1.273,1.2767,1.2778,1.2808,1.281,1.2852,1.2862,1.2866,1.2903,1.2903,1.2947,1.2946,1.3012,1.3004,1.3005,1.3004,1.3048,1.3045,1.3187,1.3206,1.3078,1.308,1.3081,0,1.2725,1.2759,1.2774,1.2794,1.2804,1.2836,1.2856,1.2848,1.2869,1.2894,1.2922,1.2957,1.2985,1.3047,1.3055,1.3089,1.3083,1.3131,1.3088,1.3091,1.3086,1.3085,1.3089,1.314,1.3141,1.3142,1.3143,0,1.2834,1.2831,1.2858,1.2885,1.2909,1.293,1.295,1.2968,1.2963,1.2988,1.3025,1.3047,1.3091,1.3127,1.316,1.3172,1.3158,1.3156,1.3168,1.3173,1.3172,1.3175,1.303,1.3153,1.3152,1.3152,1.3151,1.3151,1.2914,1.2943,1.2959,1.299,1.3004,1.3023,1.3052,1.3057,1.3087,1.3121,1.3115,1.3157,1.3177,1.3219,1.3234,1.3268,1.3252,1.3269,1.3274,1.3279,1.3285,1.3165,1.3274,1.3274,1.3274,1.3273,1.3273,0,1.3023,1.3032,1.3061,1.3088,1.3114,1.3095,1.3117,1.314,1.3177,1.3196,1.3223,1.3267,1.3303,1.3313,1.3348,1.3374,1.3369,1.3384,1.3383,1.3386,1.3296,1.3283,1.3388,1.3388,1.3387,1.3387,1.3387,1.3387,1.3083,1.3132,1.3131,1.3188,1.3197,1.3236,1.325,1.3269,1.3284,1.3333,1.3361,1.3367,1.3384,1.342,1.3452,1.3454,1.3469,1.3487,1.3488,1.3404,1.3392,1.3381,1.3369,1.349,1.349,1.3575,1.3576,1.3576]}]]